NI0Z Weather Reports


Display with metric or nautical units.
time (UTC)temp
F
wind
direction
speed
MPH
gust
MPH
rain 1hr
in
rain 24hr
in
rain mn
in
humidity
%
barometer
mb
20260902230124 96 335 1.0 5.0 0.00 0.00 0.00 40
20260902225620 96 332 1.0 3.0 0.00 0.00 0.00 40
20260902225119 96 326 1.0 2.0 0.00 0.00 0.00 40
20260902224618 96 349 1.0 2.0 0.00 0.00 0.00 40
20260902224114 96 335 1.0 7.0 0.00 0.00 0.00 40
20260902223610 95 333 0.0 2.0 0.00 0.00 0.00 40
20260902223109 96 355 1.0 3.0 0.00 0.00 0.00 40
20260902222608 96 326 0.0 1.0 0.00 0.00 0.00 41
20260902222107 96 320 0.0 1.0 0.00 0.00 0.00 41
20260902221601 96 330 1.0 2.0 0.00 0.00 0.00 39
20260902221056 96 324 2.0 3.0 0.00 0.00 0.00 39
20260902220552 96 330 1.0 2.0 0.00 0.00 0.00 40
20260902220046 96 327 2.0 5.0 0.00 0.00 0.00 39
20260902215542 96 43 2.0 3.0 0.00 0.00 0.00 39
20260902215037 97 319 0.0 2.0 0.00 0.00 0.00 40
20260902214532 97 340 3.0 3.0 0.00 0.00 0.00 40
20260902214031 97 358 1.0 3.0 0.00 0.00 0.00 39
20260902213527 97 323 0.0 2.0 0.00 0.00 0.00 41
20260902213026 97 313 4.0 5.0 0.00 0.00 0.00 40
20260902212522 96 318 0.0 1.0 0.00 0.00 0.00 41
20260902212018 96 332 1.0 2.0 0.00 0.00 0.00 41
20260902211514 97 313 2.0 3.0 0.00 0.00 0.00 41
20260902211009 96 322 2.0 3.0 0.00 0.00 0.00 42
20260902210509 96 335 2.0 3.0 0.00 0.00 0.00 41
20260902210008 96 323 1.0 5.0 0.00 0.00 0.00 42
20260902205502 96 343 3.0 5.0 0.00 0.00 0.00 41
20260902204958 97 339 2.0 5.0 0.00 0.00 0.00 42
20260902204457 96 327 2.0 5.0 0.00 0.00 0.00 40
20260902203953 96 2 2.0 8.0 0.00 0.00 0.00 41
20260902203448 96 313 4.0 6.0 0.00 0.00 0.00 40
20260902202946 96 343 2.0 5.0 0.00 0.00 0.00 41
20260902202443 95 319 0.0 2.0 0.00 0.00 0.00 43
20260902201940 96 321 1.0 2.0 0.00 0.00 0.00 42
20260902201434 97 345 4.0 7.0 0.00 0.00 0.00 41
20260902200934 96 330 2.0 5.0 0.00 0.00 0.00 41
20260902200430 96 342 3.0 3.0 0.00 0.00 0.00 44
20260902195925 96 1 2.0 5.0 0.00 0.00 0.00 43
20260902195420 96 329 1.0 3.0 0.00 0.00 0.00 44
20260902194914 96 319 0.0 1.0 0.00 0.00 0.00 45
20260902194414 96 331 2.0 3.0 0.00 0.00 0.00 44
20260902193909 95 315 0.0 2.0 0.00 0.00 0.00 46
20260902193406 96 326 1.0 2.0 0.00 0.00 0.00 43
20260902192904 96 336 2.0 5.0 0.00 0.00 0.00 42
20260902192403 96 5 2.0 2.0 0.00 0.00 0.00 43
20260902191856 96 293 1.0 2.0 0.00 0.00 0.00 45
20260902191353 96 320 2.0 5.0 0.00 0.00 0.00 43
20260902190847 96 9 3.0 5.0 0.00 0.00 0.00 44
20260902190347 95 303 1.0 2.0 0.00 0.00 0.00 47
20260902185843 95 292 2.0 2.0 0.00 0.00 0.00 45
20260902185338 96 46 4.0 7.0 0.00 0.00 0.00 44
20260902184834 96 318 2.0 5.0 0.00 0.00 0.00 45
20260902184329 95 72 1.0 3.0 0.00 0.00 0.00 47
20260902183825 95 315 1.0 2.0 0.00 0.00 0.00 48
20260902183321 95 354 1.0 2.0 0.00 0.00 0.00 46
20260902182817 95 315 2.0 3.0 0.00 0.00 0.00 46
20260902182313 95 24 2.0 3.0 0.00 0.00 0.00 46
20260902181809 95 303 1.0 2.0 0.00 0.00 0.00 48
20260902181304 94 320 1.0 5.0 0.00 0.00 0.00 48
20260902180758 94 347 2.0 2.0 0.00 0.00 0.00 46
20260902180254 94 333 3.0 5.0 0.00 0.00 0.00 47
20260902175749 94 2 1.0 5.0 0.00 0.00 0.00 50
20260902175244 94 306 1.0 3.0 0.00 0.00 0.00 51
20260902174740 93 322 0.0 2.0 0.00 0.00 0.00 50
20260902174236 93 325 0.0 3.0 0.00 0.00 0.00 50
20260902173732 93 323 1.0 2.0 0.00 0.00 0.00 51
20260902173231 93 327 1.0 2.0 0.00 0.00 0.00 52
20260902172726 92 351 1.0 1.0 0.00 0.00 0.00 52
20260902172226 92 334 1.0 1.0 0.00 0.00 0.00 52
20260902171721 92 269 1.0 6.0 0.00 0.00 0.00 51
20260902171216 92 354 1.0 2.0 0.00 0.00 0.00 54
20260902170712 92 321 1.0 2.0 0.00 0.00 0.00 54
20260902170208 92 348 1.0 7.0 0.00 0.00 0.00 54
20260902165702 91 325 1.0 3.0 0.00 0.00 0.00 54
20260902165156 91 311 1.0 2.0 0.00 0.00 0.00 53
20260902164652 91 334 2.0 7.0 0.00 0.00 0.00 54
20260902164150 90 321 0.0 2.0 0.00 0.00 0.00 56
20260902163646 90 354 1.0 2.0 0.00 0.00 0.00 55
20260902163145 90 326 0.0 2.0 0.00 0.00 0.00 55
20260902162644 89 332 2.0 3.0 0.00 0.00 0.00 56
20260902162138 89 323 0.0 2.0 0.00 0.00 0.00 57
20260902161634 89 320 2.0 3.0 0.00 0.00 0.00 56
20260902161130 88 341 1.0 5.0 0.00 0.00 0.00 57
20260902160626 88 319 2.0 3.0 0.00 0.00 0.00 58
20260902160121 88 349 1.0 5.0 0.00 0.00 0.00 57
20260902155619 88 320 1.0 2.0 0.00 0.00 0.00 58
20260902155118 88 327 2.0 3.0 0.00 0.00 0.00 57
20260902154613 88 310 1.0 3.0 0.00 0.00 0.00 58
20260902154108 88 325 1.0 5.0 0.00 0.00 0.00 58
20260902153607 88 329 2.0 2.0 0.00 0.00 0.00 59
20260902153102 87 321 1.0 2.0 0.00 0.00 0.00 59
20260902152559 87 339 1.0 3.0 0.00 0.00 0.00 59
20260902152054 86 320 1.0 2.0 0.00 0.00 0.00 61
20260902151549 86 338 1.0 6.0 0.00 0.00 0.00 62
20260902151049 86 358 1.0 2.0 0.00 0.00 0.00 61
20260902150544 86 337 1.0 1.0 0.00 0.00 0.00 62
20260902150040 85 346 2.0 2.0 0.00 0.00 0.00 64
20260902145535 84 316 1.0 1.0 0.00 0.00 0.00 63
20260902145034 84 359 0.0 5.0 0.00 0.00 0.00 63
20260902144531 84 328 0.0 2.0 0.00 0.00 0.00 65
20260902144032 83 326 0.0 0.0 0.00 0.00 0.00 66
20260902143532 83 321 0.0 1.0 0.00 0.00 0.00 65
20260902143028 83 356 1.0 3.0 0.00 0.00 0.00 66
20260902142523 82 339 0.0 1.0 0.00 0.00 0.00 66
20260902142018 82 324 0.0 0.0 0.00 0.00 0.00 66
20260902141513 82 335 1.0 2.0 0.00 0.00 0.00 66
20260902141008 82 330 2.0 5.0 0.00 0.00 0.00 65
20260902140503 82 325 0.0 1.0 0.00 0.00 0.00 66
20260902140002 82 346 2.0 3.0 0.00 0.00 0.00 66
20260902135458 81 325 1.0 2.0 0.00 0.00 0.00 66
20260902134958 81 326 1.0 2.0 0.00 0.00 0.00 66
20260902134454 80 339 2.0 2.0 0.00 0.00 0.00 66
20260902133954 80 321 0.0 2.0 0.00 0.00 0.00 67
20260902133448 80 325 0.0 2.0 0.00 0.00 0.00 67
20260902132943 79 333 1.0 2.0 0.00 0.00 0.00 67
20260902132439 79 326 1.0 1.0 0.00 0.00 0.00 68
20260902131933 78 323 2.0 3.0 0.00 0.00 0.00 68
20260902131430 78 325 1.0 5.0 0.00 0.00 0.00 68
20260902130929 78 323 1.0 5.0 0.00 0.00 0.00 69
20260902130426 78 334 1.0 5.0 0.00 0.00 0.00 69
20260902125920 78 331 1.0 1.0 0.00 0.00 0.00 69
20260902125416 78 331 2.0 5.0 0.00 0.00 0.00 68
20260902124912 77 329 1.0 2.0 0.00 0.00 0.00 69
20260902124408 77 332 1.0 2.0 0.00 0.00 0.00 69
20260902123903 76 339 3.0 3.0 0.00 0.00 0.00 70
20260902123359 76 324 0.0 2.0 0.00 0.00 0.00 70
20260902122857 76 333 1.0 2.0 0.00 0.00 0.00 71
20260902122353 76 331 1.0 2.0 0.00 0.00 0.00 71
20260902121848 75 336 2.0 3.0 0.00 0.00 0.00 71
20260902121343 75 328 1.0 2.0 0.00 0.00 0.00 71
20260902120838 75 323 0.0 3.0 0.00 0.00 0.00 71
20260902120334 75 327 1.0 2.0 0.00 0.00 0.00 71
20260902115828 75 318 1.0 2.0 0.00 0.00 0.00 71
20260902115325 75 342 1.0 2.0 0.00 0.00 0.00 71
20260902114821 75 337 1.0 2.0 0.00 0.00 0.00 71
20260902114317 75 332 2.0 2.0 0.00 0.00 0.00 71
20260902113816 75 345 2.0 2.0 0.00 0.00 0.00 71
20260902113312 75 326 1.0 2.0 0.00 0.00 0.00 71
20260902112811 76 328 0.0 1.0 0.00 0.00 0.00 71
20260902112308 76 323 1.0 1.0 0.00 0.00 0.00 70
20260902111803 76 327 1.0 1.0 0.00 0.00 0.00 70
20260902111300 76 325 1.0 1.0 0.00 0.00 0.00 70
20260902110755 76 337 1.0 2.0 0.00 0.00 0.00 70
20260902110251 76 334 1.0 1.0 0.00 0.00 0.00 70
20260902105750 76 320 1.0 2.0 0.00 0.00 0.00 70
20260902105246 76 331 0.0 1.0 0.00 0.00 0.00 69
20260902104741 77 325 1.0 2.0 0.00 0.00 0.00 69
20260902104237 77 1 1.0 2.0 0.00 0.00 0.00 69
20260902103736 77 334 1.0 2.0 0.00 0.00 0.00 69
20260902103231 77 336 3.0 3.0 0.00 0.00 0.00 68
20260902102727 77 332 0.0 2.0 0.00 0.00 0.00 68
20260902102224 77 334 2.0 2.0 0.00 0.00 0.00 68
20260902101720 77 324 1.0 1.0 0.00 0.00 0.00 68
20260902101214 77 320 0.0 2.0 0.00 0.00 0.00 68
20260902100713 77 352 2.0 6.0 0.00 0.00 0.00 67
20260902100208 78 343 1.0 2.0 0.00 0.00 0.00 67
20260902095708 78 331 1.0 2.0 0.00 0.00 0.00 67
20260902095202 78 323 0.0 1.0 0.00 0.00 0.00 66
20260902094657 78 324 1.0 2.0 0.00 0.00 0.00 66
20260902094154 78 327 1.0 1.0 0.00 0.00 0.00 66
20260902093652 78 322 1.0 2.0 0.00 0.00 0.00 66
20260902093148 78 330 1.0 2.0 0.00 0.00 0.00 66
20260902092643 78 330 1.0 1.0 0.00 0.00 0.00 66
20260902092143 78 327 1.0 2.0 0.00 0.00 0.00 66
20260902091637 78 333 0.0 1.0 0.00 0.00 0.00 65
20260902091134 78 355 1.0 2.0 0.00 0.00 0.00 66
20260902090630 78 355 2.0 3.0 0.00 0.00 0.00 65
20260902090129 78 331 1.0 2.0 0.00 0.00 0.00 65
20260902085624 78 327 1.0 2.0 0.00 0.00 0.00 65
20260902085119 78 349 2.0 2.0 0.00 0.00 0.00 65
20260902084615 78 334 1.0 1.0 0.00 0.00 0.00 65
20260902084110 78 340 2.0 2.0 0.00 0.00 0.00 65
20260902083606 78 328 1.0 3.0 0.00 0.00 0.00 65
20260902083105 78 335 1.0 2.0 0.00 0.00 0.00 66
20260902082601 78 339 1.0 2.0 0.00 0.00 0.00 66
20260902082057 78 328 0.0 2.0 0.00 0.00 0.00 66
20260902081554 78 339 1.0 1.0 0.00 0.00 0.00 65
20260902081053 78 336 1.0 2.0 0.00 0.00 0.00 65
20260902080548 78 331 1.0 1.0 0.00 0.00 0.00 66
20260902080045 78 327 1.0 1.0 0.00 0.00 0.00 65
20260902075544 78 327 1.0 2.0 0.00 0.00 0.00 65
20260902075041 78 335 1.0 1.0 0.00 0.00 0.00 65
20260902074536 78 328 1.0 1.0 0.00 0.00 0.00 65
20260902074031 78 325 0.0 1.0 0.00 0.00 0.00 65
20260902073526 79 334 1.0 2.0 0.00 0.00 0.00 64
20260902073023 79 331 1.0 1.0 0.00 0.00 0.00 64
20260902072518 79 330 0.0 1.0 0.00 0.00 0.00 64
20260902072015 79 332 1.0 2.0 0.00 0.00 0.00 64
20260902071514 79 326 0.0 1.0 0.00 0.00 0.00 63
20260902071011 79 333 1.0 1.0 0.00 0.00 0.00 63
20260902070506 80 327 0.0 1.0 0.00 0.00 0.00 63
20260902070007 80 333 1.0 1.0 0.00 0.00 0.00 62
20260902065454 80 340 1.0 1.0 0.00 0.00 0.00 63
20260902064949 80 324 1.0 1.0 0.00 0.00 0.00 63
20260902064444 80 337 1.0 2.0 0.00 0.00 0.00 62
20260902063940 80 326 0.0 1.0 0.00 0.00 0.00 62
20260902063439 80 326 0.0 1.0 0.00 0.00 0.00 62
20260902062935 80 324 1.0 1.0 0.00 0.00 0.00 61
20260902062434 80 330 1.0 1.0 0.00 0.00 0.00 61
20260902061929 80 324 0.0 1.0 0.00 0.00 0.00 61
20260902061424 81 324 0.0 1.0 0.00 0.00 0.00 60
20260902060920 81 325 0.0 1.0 0.00 0.00 0.00 60
20260902060416 81 340 1.0 1.0 0.00 0.00 0.00 60
20260902055912 81 327 1.0 2.0 0.00 0.00 0.00 59
20260902055408 81 327 1.0 2.0 0.00 0.00 0.00 59
20260902054903 82 327 0.0 1.0 0.00 0.00 0.00 58
20260902054358 82 325 0.0 1.0 0.00 0.00 0.00 58
20260902053853 82 332 0.0 1.0 0.00 0.00 0.00 58
20260902053348 82 325 0.0 2.0 0.00 0.00 0.00 57
20260902052847 82 326 1.0 1.0 0.00 0.00 0.00 57
20260902052343 82 323 0.0 1.0 0.00 0.00 0.00 57
20260902051838 82 326 0.0 1.0 0.00 0.00 0.00 57
20260902051337 82 325 1.0 1.0 0.00 0.00 0.00 57
20260902050832 82 331 1.0 1.0 0.00 0.00 0.00 57
20260902050331 82 324 0.0 1.0 0.00 0.00 0.00 57
20260902045826 82 323 0.0 2.0 0.00 0.00 0.00 57
20260902045322 82 328 0.0 1.0 0.00 0.00 0.00 57
20260902044819 82 327 1.0 2.0 0.00 0.00 0.00 57
20260902044314 82 327 1.0 1.0 0.00 0.00 0.00 57
20260902043808 82 324 0.0 1.0 0.00 0.00 0.00 57
20260902043304 83 328 1.0 1.0 0.00 0.00 0.00 56
20260902042803 83 324 0.0 0.0 0.00 0.00 0.00 56
20260902042258 83 329 1.0 1.0 0.00 0.00 0.00 55
20260902041753 83 324 0.0 1.0 0.00 0.00 0.00 55
20260902041253 83 324 0.0 0.0 0.00 0.00 0.00 55
20260902040752 83 324 0.0 0.0 0.00 0.00 0.00 55
20260902040248 84 324 0.0 1.0 0.00 0.00 0.00 55
20260902035746 84 325 0.0 1.0 0.00 0.00 0.00 54
20260902035242 83 324 1.0 1.0 0.00 0.00 0.00 55
20260902034741 84 324 0.0 0.0 0.00 0.00 0.00 54
20260902034236 84 328 1.0 2.0 0.00 0.00 0.00 54
20260902033734 84 324 0.0 0.0 0.00 0.00 0.00 55
20260902033229 84 325 0.0 1.0 0.00 0.00 0.00 55
20260902032727 84 323 0.0 1.0 0.00 0.00 0.00 54
20260902032223 84 324 0.0 1.0 0.00 0.00 0.00 54
20260902031723 84 332 1.0 1.0 0.00 0.00 0.00 54
20260902031218 83 324 0.0 1.0 0.00 0.00 0.00 55
20260902030714 83 324 0.0 0.0 0.00 0.00 0.00 55
20260902030214 83 324 0.0 0.0 0.00 0.00 0.00 56
20260902025713 84 323 0.0 0.0 0.00 0.00 0.00 55
20260902025208 84 323 0.0 0.0 0.00 0.00 0.00 54
20260902024703 83 327 0.0 0.0 0.00 0.00 0.00 55
20260902024158 84 324 0.0 0.0 0.00 0.00 0.00 57
20260902023654 83 323 0.0 0.0 0.00 0.00 0.00 57
20260902023149 84 324 0.0 0.0 0.00 0.00 0.00 56
20260902022648 84 325 0.0 0.0 0.00 0.00 0.00 56
20260902022144 84 324 0.0 0.0 0.00 0.00 0.00 56
20260902021640 83 324 0.0 0.0 0.00 0.00 0.00 56
20260902021134 84 323 0.0 0.0 0.00 0.00 0.00 56
20260902020631 84 323 0.0 0.0 0.00 0.00 0.00 56
20260902020126 84 323 0.0 0.0 0.00 0.00 0.00 56
20260902015621 84 323 0.0 0.0 0.00 0.00 0.00 56
20260902015118 84 323 0.0 0.0 0.00 0.00 0.00 55
20260902014613 85 323 0.0 0.0 0.00 0.00 0.00 55
20260902014108 85 323 0.0 0.0 0.00 0.00 0.00 54
20260902013608 85 323 0.0 1.0 0.00 0.00 0.00 54
20260902013104 86 323 0.0 0.0 0.00 0.00 0.00 54
20260902012559 86 323 0.0 0.0 0.00 0.00 0.00 53
20260902012054 86 323 0.0 0.0 0.00 0.00 0.00 53
20260902011550 86 323 0.0 0.0 0.00 0.00 0.00 53
20260902011049 87 322 0.0 0.0 0.00 0.00 0.00 52
20260902010548 87 322 0.0 0.0 0.00 0.00 0.00 51
20260902010045 87 322 0.0 0.0 0.00 0.00 0.00 50
20260902005542 88 322 0.0 0.0 0.00 0.00 0.00 49
20260902005039 88 323 0.0 0.0 0.00 0.00 0.00 48
20260902004538 89 322 0.0 0.0 0.00 0.00 0.00 49
20260902004033 90 322 0.0 0.0 0.00 0.00 0.00 47
20260902003529 91 322 0.0 0.0 0.00 0.00 0.00 46
20260902003024 92 322 0.0 0.0 0.00 0.00 0.00 44
20260902002520 92 322 0.0 0.0 0.00 0.00 0.00 43
20260902002014 93 322 0.0 0.0 0.00 0.00 0.00 43
20260902001509 94 322 0.0 0.0 0.00 0.00 0.00 42
20260902001004 94 321 0.0 0.0 0.00 0.00 0.00 41
20260902000459 94 319 0.0 0.0 0.00 0.00 0.00 40
20260901235954 94 322 0.0 1.0 0.00 0.00 0.00 39
20260901235449 94 322 0.0 0.0 0.00 0.00 0.00 39
20260901234944 94 322 2.0 2.0 0.00 0.00 0.00 39
20260901234437 95 318 0.0 0.0 0.00 0.00 0.00 40
20260901233932 95 326 1.0 1.0 0.00 0.00 0.00 39
20260901233422 95 321 0.0 1.0 0.00 0.00 0.00 39
20260901232919 95 323 0.0 2.0 0.00 0.00 0.00 37
20260901232418 95 326 0.0 1.0 0.00 0.00 0.00 38
20260901231914 95 323 1.0 3.0 0.00 0.00 0.00 37
20260901231410 95 326 1.0 1.0 0.00 0.00 0.00 38
20260901230907 95 18 2.0 2.0 0.00 0.00 0.00 37